Time,TemperatureF,DewpointF,PressureIn,WindDirection,WindDirectionDegrees,WindSpeedMPH,WindSpeedGustMPH,Humidity,HourlyPrecipIn,Conditions,Clouds,dailyrainin,SoftwareType,DateUTC
2013-11-14 00:13:00,34.0,30.0,30.47,North,350,0.0,0.0,84,0.00,,,0.00,,2013-11-14 05:13:00,
2013-11-14 00:23:00,34.0,30.0,30.47,North,350,0.0,0.0,85,0.00,,,0.00,,2013-11-14 05:23:00,
2013-11-14 00:44:00,33.0,29.0,30.46,North,350,0.0,0.0,86,0.00,,,0.00,,2013-11-14 05:44:00,
2013-11-14 00:53:00,33.0,29.0,30.45,North,350,0.0,0.0,86,0.00,,,0.00,,2013-11-14 05:53:00,
2013-11-14 01:22:00,33.0,30.0,30.45,North,350,0.0,0.0,88,0.00,,,0.00,,2013-11-14 06:22:00,
2013-11-14 01:42:00,32.0,29.0,30.45,North,349,0.0,0.0,88,0.00,,,0.00,,2013-11-14 06:42:00,
2013-11-14 01:52:00,32.0,29.0,30.45,North,352,0.0,0.0,88,0.00,,,0.00,,2013-11-14 06:52:00,
2013-11-14 02:11:00,32.0,29.0,30.44,North,350,0.0,0.0,89,0.00,,,0.00,,2013-11-14 07:11:00,
2013-11-14 02:22:00,32.0,29.0,30.44,North,349,0.0,0.0,88,0.00,,,0.00,,2013-11-14 07:22:00,
2013-11-14 02:42:00,32.0,29.0,30.44,North,351,0.0,0.0,90,0.00,,,0.00,,2013-11-14 07:42:00,
2013-11-14 02:53:00,32.0,29.0,30.44,North,350,0.0,0.0,90,0.00,,,0.00,,2013-11-14 07:53:00,
2013-11-14 03:12:00,32.0,29.0,30.44,North,350,0.0,1.0,90,0.00,,,0.00,,2013-11-14 08:12:00,
2013-11-14 03:22:00,32.0,30.0,30.44,North,350,0.0,2.0,91,0.00,,,0.00,,2013-11-14 08:22:00,
2013-11-14 03:42:00,32.0,30.0,30.44,North,350,0.0,0.0,91,0.00,,,0.00,,2013-11-14 08:42:00,
2013-11-14 03:53:00,32.0,29.0,30.43,North,350,0.0,0.0,90,0.00,,,0.00,,2013-11-14 08:53:00,
2013-11-14 04:11:00,32.0,29.0,30.43,North,359,0.0,2.0,90,0.00,,,0.00,,2013-11-14 09:11:00,
2013-11-14 04:22:00,32.0,29.0,30.43,North,350,0.0,2.0,90,0.00,,,0.00,,2013-11-14 09:22:00,
2013-11-14 04:43:00,33.0,30.0,30.43,NNW,337,0.0,5.0,88,0.00,,,0.00,,2013-11-14 09:43:00,
2013-11-14 04:53:00,33.0,29.0,30.43,NNW,328,0.0,3.0,86,0.00,,,0.00,,2013-11-14 09:53:00,
2013-11-14 05:12:00,34.0,29.0,30.43,North,350,1.0,3.0,83,0.00,,,0.00,,2013-11-14 10:12:00,
2013-11-14 05:23:00,35.0,30.0,30.43,North,359,1.0,3.0,82,0.00,,,0.00,,2013-11-14 10:23:00,
2013-11-14 05:42:00,35.0,30.0,30.43,North,355,0.0,3.0,82,0.00,,,0.00,,2013-11-14 10:42:00,
2013-11-14 05:52:00,35.0,30.0,30.43,North,10,0.0,5.0,83,0.00,,,0.00,,2013-11-14 10:52:00,
2013-11-14 06:11:00,35.0,30.0,30.44,North,4,1.0,3.0,83,0.00,,,0.00,,2013-11-14 11:11:00,
2013-11-14 06:22:00,35.0,30.0,30.44,North,4,1.0,3.0,83,0.00,,,0.00,,2013-11-14 11:22:00,
2013-11-14 06:42:00,36.0,32.0,30.44,North,354,2.0,5.0,84,0.00,,,0.00,,2013-11-14 11:42:00,
2013-11-14 06:52:00,37.0,30.0,30.44,NNE,23,3.0,5.0,76,0.00,,,0.00,,2013-11-14 11:52:00,
2013-11-14 07:12:00,39.0,29.0,30.44,NNE,32,3.0,9.0,68,0.00,,,0.00,,2013-11-14 12:12:00,
2013-11-14 07:21:00,39.0,29.0,30.44,NNE,12,3.0,9.0,66,0.00,,,0.00,,2013-11-14 12:21:00,
2013-11-14 07:42:00,39.0,29.0,30.45,NNW,344,3.0,6.0,67,0.00,,,0.00,,2013-11-14 12:42:00,
2013-11-14 07:52:00,39.0,29.0,30.45,NNW,347,4.0,10.0,66,0.00,,,0.00,,2013-11-14 12:52:00,
2013-11-14 08:11:00,40.0,29.0,30.45,North,350,5.0,9.0,64,0.00,,,0.00,,2013-11-14 13:11:00,
2013-11-14 08:22:00,41.0,29.0,30.45,North,4,3.0,8.0,63,0.00,,,0.00,,2013-11-14 13:22:00,
2013-11-14 08:42:00,42.0,30.0,30.45,North,10,5.0,9.0,61,0.00,,,0.00,,2013-11-14 13:42:00,
2013-11-14 08:52:00,43.0,30.0,30.46,North,354,5.0,10.0,60,0.00,,,0.00,,2013-11-14 13:52:00,
2013-11-14 09:11:00,45.0,32.0,30.46,NNE,27,3.0,10.0,61,0.00,,,0.00,,2013-11-14 14:11:00,
2013-11-14 09:22:00,45.0,32.0,30.47,North,357,5.0,12.0,59,0.00,,,0.00,,2013-11-14 14:22:00,
2013-11-14 09:42:00,47.0,33.0,30.47,North,7,6.0,12.0,59,0.00,,,0.00,,2013-11-14 14:42:00,
2013-11-14 09:52:00,47.0,34.0,30.47,NNW,335,2.0,9.0,61,0.00,,,0.00,,2013-11-14 14:52:00,
2013-11-14 10:11:00,49.0,36.0,30.47,NNE,28,3.0,8.0,60,0.00,,,0.00,,2013-11-14 15:11:00,
2013-11-14 10:22:00,49.0,36.0,30.47,North,355,2.0,9.0,61,0.00,,,0.00,,2013-11-14 15:22:00,
2013-11-14 10:43:00,50.0,36.0,30.46,North,6,3.0,10.0,59,0.00,,,0.00,,2013-11-14 15:43:00,
2013-11-14 10:53:00,51.0,37.0,30.46,NNE,26,5.0,10.0,58,0.00,,,0.00,,2013-11-14 15:53:00,
2013-11-14 11:13:00,52.0,39.0,30.46,North,359,2.0,10.0,60,0.00,,,0.00,,2013-11-14 16:13:00,
2013-11-14 11:23:00,52.0,38.0,30.45,NNW,345,5.0,10.0,59,0.00,,,0.00,,2013-11-14 16:23:00,
2013-11-14 11:42:00,53.0,39.0,30.45,North,9,3.0,9.0,58,0.00,,,0.00,,2013-11-14 16:42:00,
2013-11-14 11:52:00,54.0,40.0,30.45,NNE,21,2.0,10.0,60,0.00,,,0.00,,2013-11-14 16:52:00,
2013-11-14 12:13:00,54.0,40.0,30.44,North,355,3.0,9.0,59,0.00,,,0.00,,2013-11-14 17:13:00,
2013-11-14 12:23:00,55.0,41.0,30.43,ENE,62,2.0,9.0,60,0.00,,,0.00,,2013-11-14 17:23:00,
2013-11-14 12:42:00,56.0,42.0,30.42,NNE,13,5.0,10.0,60,0.00,,,0.00,,2013-11-14 17:42:00,
2013-11-14 12:52:00,56.0,42.0,30.42,North,10,3.0,8.0,59,0.00,,,0.00,,2013-11-14 17:52:00,
2013-11-14 13:12:00,57.0,43.0,30.41,North,356,3.0,10.0,60,0.00,,,0.00,,2013-11-14 18:12:00,
2013-11-14 13:22:00,57.0,43.0,30.40,SE,124,2.0,10.0,59,0.00,,,0.00,,2013-11-14 18:22:00,
2013-11-14 13:42:00,58.0,44.0,30.39,NNW,334,3.0,8.0,59,0.00,,,0.00,,2013-11-14 18:42:00,
2013-11-14 13:52:00,58.0,44.0,30.39,NNW,340,3.0,8.0,59,0.00,,,0.00,,2013-11-14 18:52:00,
2013-11-14 14:11:00,58.0,45.0,30.38,North,7,1.0,5.0,62,0.00,,,0.00,,2013-11-14 19:11:00,
2013-11-14 14:22:00,58.0,45.0,30.38,North,354,2.0,7.0,62,0.00,,,0.00,,2013-11-14 19:22:00,
2013-11-14 14:42:00,59.0,46.0,30.37,NE,42,1.0,6.0,62,0.00,,,0.00,,2013-11-14 19:42:00,
2013-11-14 14:52:00,59.0,46.0,30.36,NE,39,2.0,6.0,61,0.00,,,0.00,,2013-11-14 19:52:00,
2013-11-14 15:12:00,59.0,46.0,30.35,North,7,3.0,7.0,61,0.00,,,0.00,,2013-11-14 20:12:00,
2013-11-14 15:22:00,59.0,46.0,30.35,NE,40,3.0,6.0,62,0.00,,,0.00,,2013-11-14 20:22:00,
2013-11-14 15:42:00,59.0,46.0,30.35,NNE,24,2.0,5.0,62,0.00,,,0.00,,2013-11-14 20:42:00,
2013-11-14 15:52:00,59.0,46.0,30.35,NNE,23,2.0,5.0,63,0.00,,,0.00,,2013-11-14 20:52:00,
2013-11-14 16:11:00,59.0,48.0,30.35,ENE,78,2.0,3.0,66,0.00,,,0.00,,2013-11-14 21:11:00,
2013-11-14 16:22:00,59.0,48.0,30.35,SSW,204,2.0,6.0,66,0.00,,,0.00,,2013-11-14 21:22:00,
2013-11-14 16:43:00,58.0,47.0,30.35,SE,127,1.0,6.0,68,0.00,,,0.00,,2013-11-14 21:43:00,
2013-11-14 16:53:00,58.0,48.0,30.35,ESE,106,2.0,6.0,69,0.00,,,0.00,,2013-11-14 21:53:00,
2013-11-14 17:13:00,57.0,48.0,30.34,East,84,0.0,3.0,72,0.00,,,0.00,,2013-11-14 22:13:00,
2013-11-14 17:23:00,56.0,48.0,30.34,East,83,1.0,3.0,74,0.00,,,0.00,,2013-11-14 22:23:00,
2013-11-14 17:43:00,55.0,48.0,30.34,East,86,0.0,3.0,77,0.00,,,0.00,,2013-11-14 22:43:00,
2013-11-14 17:53:00,54.0,48.0,30.34,East,85,0.0,1.0,79,0.00,,,0.00,,2013-11-14 22:53:00,
2013-11-14 18:12:00,53.0,48.0,30.34,East,86,0.0,1.0,82,0.00,,,0.00,,2013-11-14 23:12:00,
2013-11-14 18:22:00,52.0,47.0,30.34,East,85,0.0,1.0,84,0.00,,,0.00,,2013-11-14 23:22:00,
2013-11-14 18:43:00,51.0,47.0,30.34,East,85,0.0,0.0,86,0.00,,,0.00,,2013-11-14 23:43:00,
2013-11-14 18:52:00,50.0,47.0,30.34,East,85,0.0,0.0,88,0.00,,,0.00,,2013-11-14 23:52:00,
2013-11-14 19:12:00,49.0,46.0,30.34,East,85,0.0,0.0,90,0.00,,,0.00,,2013-11-15 00:12:00,
2013-11-14 19:22:00,49.0,46.0,30.35,East,85,0.0,0.0,90,0.00,,,0.00,,2013-11-15 00:22:00,
2013-11-14 19:42:00,49.0,46.0,30.35,East,85,0.0,0.0,91,0.00,,,0.00,,2013-11-15 00:42:00,
2013-11-14 19:52:00,49.0,47.0,30.35,East,85,0.0,0.0,92,0.00,,,0.00,,2013-11-15 00:52:00,
2013-11-14 20:12:00,48.0,46.0,30.35,ENE,62,0.0,1.0,92,0.00,,,0.00,,2013-11-15 01:12:00,
2013-11-14 20:22:00,48.0,46.0,30.34,ENE,62,0.0,1.0,93,0.00,,,0.00,,2013-11-15 01:22:00,
2013-11-14 20:42:00,48.0,46.0,30.33,NE,38,0.0,1.0,93,0.00,,,0.00,,2013-11-15 01:42:00,
2013-11-14 20:52:00,48.0,46.0,30.33,NE,37,0.0,1.0,93,0.00,,,0.00,,2013-11-15 01:52:00,
2013-11-14 21:12:00,48.0,46.0,30.33,NE,36,0.0,0.0,93,0.00,,,0.00,,2013-11-15 02:12:00,
2013-11-14 21:22:00,48.0,46.0,30.32,NE,37,0.0,1.0,94,0.00,,,0.00,,2013-11-15 02:22:00,
2013-11-14 21:42:00,48.0,46.0,30.33,NE,37,0.0,2.0,94,0.00,,,0.00,,2013-11-15 02:42:00,
2013-11-14 21:52:00,48.0,46.0,30.33,NE,37,0.0,0.0,94,0.00,,,0.00,,2013-11-15 02:52:00,
2013-11-14 22:12:00,48.0,46.0,30.33,NE,36,0.0,1.0,94,0.00,,,0.00,,2013-11-15 03:12:00,
2013-11-14 22:22:00,48.0,47.0,30.33,NE,36,0.0,0.0,95,0.00,,,0.00,,2013-11-15 03:22:00,
2013-11-14 22:44:00,47.0,46.0,30.33,NE,37,0.0,1.0,95,0.00,,,0.00,,2013-11-15 03:44:00,
2013-11-14 22:54:00,47.0,46.0,30.32,NE,37,0.0,1.0,95,0.00,,,0.00,,2013-11-15 03:54:00,
2013-11-14 23:14:00,47.0,46.0,30.31,NE,35,1.0,2.0,95,0.00,,,0.00,,2013-11-15 04:14:00,
2013-11-14 23:24:00,47.0,46.0,30.31,NE,35,0.0,2.0,95,0.00,,,0.00,,2013-11-15 04:24:00,
2013-11-14 23:43:00,47.0,46.0,30.30,NE,36,0.0,0.0,95,0.00,,,0.00,,2013-11-15 04:43:00,
2013-11-14 23:53:00,47.0,46.0,30.31,NE,35,0.0,0.0,95,0.00,,,0.00,,2013-11-15 04:53:00,